DECAYED

CZ-5 R/B, 41839 (Decayed)

Orbit data source: Space-Track

CZ-5 R/B, 41839 was space debris in LEO originally from a launch on Thu, 03 Nov 2016 UTC launched from the Wenchang Satellite Launch Center (WSC). Debris objects in space refer to the collection of defunct objects orbiting the Earth. Examples of debris include non-operational satellites, rocket bodies, and fragments generated from explosions, collisions, or faulty payload assembly.

Not visible in the next 10 days
Identifier
41839, 2016-065B
Orbit
Decayed
Last TLE update
1 year ago
Origin
Manufacturer
CALT
Mission
Decayed spacecraft
Bus & Motor
CZ-5 H5-2, Unknown motor
Mass
5,100 kg wet, 5,100 kg dry
Launch date (UTC)
2016-11-03 (9 years ago)
Launch vehicle
Unknown
Launch site
Wenchang Satellite Launch Center (WSC)
Object type
Payload
Rocket body
Debris
Shape & HBR
Step Cyl, 10.6 m
Radar Cross Section
46.821 m², Large (>1 m²)

Expand to show TLE details & history

TLE from 1 year ago
0 CZ-5 R/B
1 41839U 16065B   24194.02840997  .37109488 -18354-4  78870-3 0  9991
2 41839  19.1857  91.2608 0297245  43.9485  78.8439 15.85585105119706
Epoch: 2024-07-12T00:40Z
TLE epoch observation values (Epoch: 2024-07-12T00:40:54.621Z)
Latitude
15.46635°
Longitude
-81.62584°
Altitude
278.663 km
Speed
7.764 km/s
True Right ascension
14h 36m 02s
True Declination
15° 22' 19"
Sunlit
Object was in daylight at epoch
Visualization orbit readout
Visualization observer readout
Orbital elements
Apogee altitude
519.312 km
Perigee altitude
121.102 km
Semi-major axis
6,698.344 km
Eccentricity
0.02972
Inclination
19.1857°
RAAN
91.2608°
Arg. of periapsis
43.9485°
True anomaly
Unknown
Mean anomaly
78.8439°
Eccentric anomaly
Unknown
Mean motion
3.95906 °/min
Orbital period
90.93 mins
BSTAR
0.0007887
Loading maneuver chart data...
Loading SW <> Apogee altitude chart data...
Loading historical data...
Loading historical data...
Loading historical data...
Loading historical data...
Loading historical data...
Loading historical data...
Loading historical data...
Other satellites on launch #65 in the year 2016 (2016-11-03 UTC)

CZ-5 R/B Visibility

Observer location: undefined°, undefined°

This satellite is decayed
Span
Click to sort rows by Start time (UTC) header in descending order
Start Az.
Max El. time (UTC)
Max El. Az.
Max El.
End time (UTC)
End Az.
|